LEMUR-2-TOMHENDERSON (43560 NORAD) Tracking and Keplerian Element Data

This shows tracking and keplerian element data for the satellite.

Feedback or suggestion? Click here.




ElementValue
Catalog43560
NameLEMUR-2-TOMHENDERSON
Epoch Orbit1832
Epoch Day317.42294804
Epoch Year2018
RAAN18.1609
Inclination51.6433
Eccentricity0.0008699
Argument of Perigee32.2846
Mean Anonmoly327.8665
Mean Motion15.28278711
Decay Rate1.929E-05
L11 43560U 18046G 18317.42294804 .00001929 00000-0 81711-4 0 9993
L22 43560 51.6433 18.1609 0008699 32.2846 327.8665 15.28278711 18327

Live tracking and technical data element details for LEMUR-2-TOMHENDERSON (NORAD 43560). LEMUR-2-TOMHENDERSON can be tracked NOW for your location showing map with azimuth and elevation plus other details from your city location.

Track the satellite on the map from your city or location and see movement details for azimuth, elevation, latitude, longitude, range, height, and movement on the map or in text.







IsCatalogInMostPopularTable: catalog: 43560, numindb: 33
Update: records affected: 1



GetName: 43560 LEMUR-2-TOMHENDERSON

Hit Count: updated at: Thu, 15 Nov 2018 03:59:35 GMT